N1WTL Weather Reports


Display with metric or nautical units.
time (UTC)temp
F
wind
direction
speed
MPH
gust
MPH
rain 1hr
in
rain 24hr
in
rain mn
in
humidity
%
barometer
mb
20260507020030 46 2 0.0 2.0 0.00 0.01 0.01 92 1003.0
20260507014528 46 352 0.0 1.0 0.00 0.01 0.01 92 1003.1
20260507013016 46 231 0.0 1.0 0.00 0.01 0.01 93 1002.8
20260507011528 47 58 0.0 1.0 0.00 0.01 0.01 93 1002.6
20260507010037 47 197 0.0 1.0 0.00 0.01 0.01 93 1002.7
20260507004527 48 274 0.0 1.0 0.00 0.01 0.01 93 1002.5
20260507003027 48 269 0.0 1.0 0.00 0.01 0.01 93 1002.3
20260507001519 48 342 0.0 1.0 0.00 0.01 0.01 93 1002.1
20260507000032 48 1 0.0 1.0 0.00 0.01 0.01 93 1002.0
20260506234528 48 274 0.0 0.0 0.00 0.01 0.01 93 1001.8
20260506233027 49 274 0.0 1.0 0.00 0.01 0.01 92 1001.8
20260506231528 49 274 0.0 1.0 0.00 0.01 0.01 92 1001.7
20260506230020 50 75 0.0 2.0 0.00 0.01 0.01 92 1001.5
20260506224524 50 248 2.0 6.0 0.00 0.01 0.01 91 1001.1
20260506223028 51 231 2.0 9.0 0.00 0.01 0.01 88 1001.0
20260506221530 53 247 1.0 5.0 0.00 0.01 0.01 90 1000.5
20260506220034 56 242 2.0 3.0 0.00 0.01 0.01 88 1000.4
20260506214520 57 247 0.0 1.0 0.00 0.01 0.01 92 1000.4
20260506213030 57 247 0.0 1.0 0.00 0.01 0.01 92 1000.5
20260506211529 57 247 0.0 1.0 0.00 0.01 0.01 92 1000.5
20260506210035 57 247 0.0 0.0 0.00 0.03 0.01 91 1000.6
20260506204518 57 247 0.0 1.0 0.00 0.03 0.01 91 1000.6
20260506203027 57 247 0.0 1.0 0.00 0.03 0.01 92 1000.7
20260506201533 57 246 0.0 1.0 0.00 0.03 0.01 92 1000.7
20260506200010 57 149 0.0 1.0 0.01 0.03 0.01 93 1000.8
20260506194513 57 108 0.0 1.0 0.01 0.03 0.01 93 1001.2
20260506193020 57 200 0.0 0.0 0.01 0.03 0.01 93 1001.4
20260506191522 57 200 0.0 0.0 0.01 0.03 0.01 92 1001.5
20260506190026 57 200 0.0 0.0 0.00 0.02 0.00 92 1001.5
20260506184514 57 200 0.0 0.0 0.00 0.02 0.00 92 1001.6
20260506183014 57 200 0.0 0.0 0.00 0.02 0.00 91 1001.7
20260506181527 57 200 0.0 0.0 0.00 0.02 0.00 91 1002.1
20260506180024 58 200 0.0 2.0 0.00 0.02 0.00 90 1002.4
20260506174526 58 213 0.0 1.0 0.00 0.02 0.00 90 1002.5
20260506173014 58 186 0.0 3.0 0.00 0.02 0.00 89 1002.5
20260506171533 58 210 1.0 2.0 0.00 0.02 0.00 88 1002.2
20260506170023 58 149 0.0 1.0 0.00 0.02 0.00 88 1002.5
20260506164526 58 66 0.0 0.0 0.00 0.02 0.00 88 1002.7
20260506163031 59 193 0.0 2.0 0.00 0.02 0.00 86 1002.9
20260506161516 59 201 0.0 3.0 0.00 0.02 0.00 85 1003.2
20260506160032 59 191 0.0 1.0 0.00 0.02 0.00 86 1003.5
20260506154530 59 197 0.0 1.0 0.00 0.02 0.00 85 1003.6
20260506153026 59 213 1.0 3.0 0.00 0.02 0.00 82 1003.8
20260506151534 59 221 0.0 2.0 0.00 0.02 0.00 84 1003.7
20260506150026 59 179 1.0 2.0 0.00 0.02 0.00 84 1003.8
20260506144522 58 246 1.0 2.0 0.00 0.02 0.00 84 1003.8
20260506143039 58 99 0.0 1.0 0.00 0.02 0.00 88 1003.7
20260506141529 57 219 0.0 1.0 0.00 0.02 0.00 90 1003.5
20260506140035 56 220 0.0 1.0 0.00 0.02 0.00 92 1003.3
20260506134519 55 220 0.0 1.0 0.00 0.02 0.00 92 1004.0
20260506133025 54 220 0.0 1.0 0.00 0.02 0.00 92 1004.5
20260506131528 54 220 0.0 1.0 0.00 0.02 0.00 92 1004.6
20260506130030 53 56 0.0 1.0 0.00 0.02 0.00 93 1004.3
20260506124527 53 53 0.0 1.0 0.00 0.02 0.00 93 1004.5
20260506123018 52 53 0.0 1.0 0.00 0.02 0.00 93 1004.5
20260506121522 52 53 0.0 1.0 0.00 0.02 0.00 93 1004.6
20260506120031 52 53 0.0 1.0 0.00 0.02 0.00 94 1004.8
20260506114539 52 53 0.0 1.0 0.00 0.02 0.00 94 1005.0
20260506113029 51 226 0.0 0.0 0.00 0.02 0.00 94 1005.1
20260506111521 51 225 0.0 1.0 0.00 0.02 0.00 94 1005.0
20260506110034 51 226 0.0 0.0 0.00 0.02 0.00 94 1004.9
20260506104528 51 226 0.0 0.0 0.00 0.02 0.00 94 1004.9
20260506103030 50 226 0.0 1.0 0.00 0.02 0.00 94 1005.2
20260506101545 50 226 0.0 1.0 0.00 0.02 0.00 94 1005.1
20260506100024 50 226 0.0 0.0 0.00 0.02 0.00 93 1005.1
20260506094526 50 226 0.0 0.0 0.00 0.02 0.00 93 1005.2
20260506093028 50 225 0.0 1.0 0.00 0.02 0.00 93 1005.4
20260506091530 51 225 0.0 0.0 0.00 0.02 0.00 93 1005.5
20260506090029 51 227 0.0 2.0 0.00 0.02 0.00 93 1005.3
20260506084529 51 75 0.0 1.0 0.00 0.02 0.00 93 1005.4
20260506083028 51 75 0.0 1.0 0.00 0.02 0.00 92 1005.2
20260506081511 52 75 0.0 1.0 0.00 0.02 0.00 92 1005.0
20260506073025 52 214 0.0 1.0 0.00 0.02 0.00 92 1005.8
20260506071526 53 213 0.0 1.0 0.00 0.02 0.00 91 1005.7
20260506061526 53 186 0.0 0.0 0.00 0.02 0.00 87 1005.6
20260506044528 55 73 0.0 0.0 0.00 0.02 0.00 90 1003.8
20260506043020 55 73 0.0 1.0 0.00 0.02 0.00 90 1003.7
20260506041527 55 73 0.0 2.0 0.00 0.02 0.00 89 1003.8
20260506040028 55 213 0.0 1.0 0.00 0.02 0.00 88 1003.8
20260506034528 55 214 0.0 1.0 0.00 0.02 0.02 87 1003.9
20260506033031 56 214 0.0 1.0 0.00 0.02 0.02 86 1003.8
20260506031525 56 214 0.0 0.0 0.00 0.02 0.02 85 1003.8
20260506030026 57 214 0.0 1.0 0.00 0.02 0.02 82 1003.5
20260506024515 59 214 0.0 1.0 0.00 0.02 0.02 77 1003.6
20260506023009 58 171 1.0 4.0 0.00 0.02 0.02 76 1003.5
20260506021514 57 56 0.0 2.0 0.00 0.02 0.02 84 1003.7